Terminal Aerodrome Forecast
Issued by NWS

Home | Current Version | Previous Version | Graphics & Text | Print | Product List | Glossary On
Versions: 1 2 3 4 5 6 7 8 9 10 11 12 13 14 15 16
000
FTUS43 KGRB 071135
TAFAUW
TAF
KAUW 071135Z 0712/0812 26015G26KT P6SM -SN OVC017
      TEMPO 0712/0716 3SM -SHSN
     FM072000 26016G27KT P6SM OVC020
     FM072300 27013G23KT P6SM OVC015
     FM080800 27011G20KT 6SM -SHSN OVC015=

USA.gov is the U.S. government's official web portal to all federal, state and local government web resources and services.